Manhattan, KS

4:24 AM CDT on May 29, 2017 (GMT -0500)
Manhattan Regional

Weather History for KMHK - October, 2011

Change the Weather History Date:

Thursday, October 6, 2011

  Actual Average Record
Temperature  
Mean Temperature 74 °F 59 °F  
Max Temperature 84 °F 72 °F 89 °F (1997)
Min Temperature 64 °F 46 °F 30 °F (2000)
Degree Days  
Heating Degree Days 0 8  
Month to date heating degree days 41  
Since 1 July heating degree days 111  
Cooling Degree Days 9 2  
Month to date cooling degree days 12  
Year to date cooling degree days 1349  
Growing Degree Days 24 (Base 50)    
Moisture  
Dew Point 44 °F    
Average Humidity 37    
Maximum Humidity 48    
Minimum Humidity 22    
Precipitation  
Precipitation 0.00 in 0.08 in 0.37 in (2016)
Month to date precipitation 0.51  
Year to date precipitation 28.22  
Sea Level Pressure  
Sea Level Pressure 29.91 in    
Wind  
Wind Speed 15 mph (SSE)    
Max Wind Speed 28 mph    
Max Gust Speed 41 mph    
Visibility 10 miles    
Events      
T = Trace of Precipitation, MM = Missing Value Source: NWS Daily Summary

Daily Weather History Graph

Daily Weather History Graph

Search for Another Location

Airport or City:

Trip Planner

Search our weather history database for the weather conditions in past years. The results will help you decide how hot, cold, wet, or windy it might be!

Date:

Astronomy

Oct. 06, 2011 Rise Set
Actual Time 7:27 AM CDT 7:01 PM CDT
Civil Twilight 7:00 AM CDT 7:28 PM CDT
Nautical Twilight 6:29 AM CDT 7:59 PM CDT
Astronomical Twilight 5:58 AM CDT 8:30 PM CDT
Moon 4:14 PM CDT (10/6) 2:19 AM CDT (10/6)
Length of Visible Light 12h 28m
Length of Day
11h 34m
Waxing Gibbous, 75% of the Moon is Illuminated
Oct 6
Waxing Gibbous
Oct 11
Full
Oct 19
Last Quarter
Oct 26
New
Nov 2
First Quarter

Hourly Weather History & Observations

Time (CDT) Temp. Dew Point Humidity Pressure Visibility Wind Dir Wind Speed Gust Speed Precip Events Conditions
12:52 AM 69.1 °F 41.0 °F 36% 29.96 in 10.0 mi South 13.8 mph 23.0 mph N/A   Partly Cloudy
1:52 AM 66.9 °F 41.0 °F 39% 29.96 in 10.0 mi South 11.5 mph - N/A   Clear
2:52 AM 64.9 °F 42.1 °F 43% 29.96 in 10.0 mi South 11.5 mph - N/A   Clear
3:52 AM 64.4 °F 42.8 °F 45% 29.98 in 10.0 mi South 9.2 mph - N/A   Clear
4:52 AM 66.0 °F 43.0 °F 43% 29.94 in 10.0 mi SSE 11.5 mph 19.6 mph N/A   Clear
5:52 AM 64.9 °F 43.0 °F 45% 29.94 in 10.0 mi SSE 15.0 mph - N/A   Clear
6:52 AM 64.0 °F 44.1 °F 48% 29.94 in 10.0 mi SSE 11.5 mph - N/A   Clear
7:52 AM 64.0 °F 44.1 °F 48% 29.95 in 10.0 mi South 11.5 mph - N/A   Partly Cloudy
8:52 AM 66.9 °F 44.1 °F 44% 29.96 in 10.0 mi South 18.4 mph 25.3 mph N/A   Overcast
9:52 AM 68.0 °F 45.0 °F 43% 29.96 in 10.0 mi South 11.5 mph 21.9 mph N/A   Scattered Clouds
10:52 AM 75.0 °F 48.0 °F 38% 29.95 in 10.0 mi South 17.3 mph 27.6 mph N/A   Clear
11:52 AM 77.0 °F 50.0 °F 39% 29.94 in 10.0 mi South 25.3 mph 35.7 mph N/A   Scattered Clouds
12:52 PM 81.0 °F 48.0 °F 31% 29.91 in 9.0 mi South 27.6 mph 38.0 mph N/A   Partly Cloudy
1:52 PM 78.1 °F 46.0 °F 32% 29.89 in 10.0 mi South 23.0 mph 34.5 mph N/A   Overcast
2:52 PM 84.0 °F 44.1 °F 25% 29.86 in 7.0 mi SSE 27.6 mph 41.4 mph N/A   Scattered Clouds
3:52 PM 84.0 °F 44.1 °F 25% 29.85 in 10.0 mi South 21.9 mph 40.3 mph N/A   Clear
4:52 PM 84.0 °F 41.0 °F 22% 29.84 in 10.0 mi South 23.0 mph 33.4 mph N/A   Clear
5:52 PM 82.0 °F 39.9 °F 22% 29.83 in 10.0 mi South 21.9 mph 34.5 mph N/A   Clear
6:52 PM 79.0 °F 43.0 °F 28% 29.85 in 10.0 mi South 17.3 mph - N/A   Clear
7:52 PM 75.9 °F 44.1 °F 32% 29.86 in 10.0 mi SSE 11.5 mph - N/A   Clear
8:52 PM 75.0 °F 46.0 °F 36% 29.88 in 10.0 mi SSE 12.7 mph - N/A   Clear
9:52 PM 73.0 °F 46.9 °F 39% 29.89 in 10.0 mi SSE 11.5 mph 19.6 mph N/A   Clear
10:52 PM 73.0 °F 48.0 °F 41% 29.88 in 10.0 mi SSE 13.8 mph 28.8 mph N/A   Clear
11:52 PM 73.0 °F 48.0 °F 41% 29.88 in 10.0 mi South 21.9 mph 32.2 mph N/A   Clear